User: anonymous
Location: Unspecified
(0.0000°N, 0.0000°E)
Time: 10:40:52
(UTC+00:00)
Language:

NAVSTAR 64 (USA 206) - Orbit

View from above orbital plane
View from above orbital plane
View from above satellite
View from above satellite

Ground track
Ground track

The orbit data is extracted from the following two-line orbital elements,

1 35752U 09043A   14204.22992304  .00000058  00000-0  00000+0 0  8418
2 35752 054.2698 202.4885 0036180 013.6774 160.2421 02.00566562 36167
Epoch (UTC): 23 July 2014 05:31:05
Eccentricity: 0.0036180
inclination: 54.2698°
perigee height: 20085 km
apogee height: 20278 km
right ascension of ascending node: 202.4885°
argument of perigee: 13.6774°
revolutions per day: 2.00566562
mean anomaly at epoch: 160.2421°
orbit number at epoch: 3616

The dashed part of the orbit path shows where the satellite is in the earth's shadow,  

DLR